Location: Bondula
(6.3703°N, 10.6756°W)
Time: 14:26:47
(UTC+00:00)

H-2A R/B - Pass Details

Date: 22 October 2019
Orbit: 202 x 17275 km, 31.9° (Epoch: 16 November)

Event Time Altitude Azimuth Distance (km) Brightness Sun altitude
Exits shadow 05:01:10 19° 214° (SW) 1,880 3.8 -22.3°
Maximum altitude 05:02:58 22° 188° (S) 2,189 4.3 -21.8°
Drops below altitude 10° 05:11:59 10° 143° (SE) 5,550 7.0 -19.6°
Sets 05:23:17 0° 133° (SE) 9,601 8.6 -16.9°
